Regional Weather Roundup
Issued by NWS

Home | Current Version | Previous Version | Text Only | Print | Product List | Glossary On
Versions: 1 2 3 4 5 6 7 8 9 10 11 12 13 14 15 16 17 18 19 20 21 22 23 24 25 26 27 28 29 30 31 32 33 34 35 36 37 38 39 40 41 42 43 44 45 46 47 48 49 50
000
ASUS45 KPSR 032110
RWRAZ

ARIZONA HOURLY REGIONAL WEATHER ROUNDUP
NATIONAL WEATHER SERVICE PHOENIX AZ
200 PM MST THU SEP 03 2015

NOTE: FAIR INDICATES FEW OR NO CLOUDS BELOW 12,000 FEET WITH NO
SIGNIFICANT WEATHER AND/OR OBSTRUCTIONS TO VISIBILITY.

AZZ001>003-036-032200-
NORTHWEST ARIZONA

CITY           SKY/WX    TMP DP  RH WIND       PRES   REMARKS
BULLHEAD CITY  FAIR     102  32   8 S18       29.72F
KINGMAN        FAIR      93  30  10 SW16G33   29.92F
$$

AZZ004>008-015-016-018-032200-
NORTH CENTRAL ARIZONA

CITY           SKY/WX    TMP DP  RH WIND       PRES   REMARKS
GRAND CANYON   FAIR      77  36  22 S16G30    30.16F
WILLIAMS       FAIR      77  39  25 S14G23    30.21F
PRESCOTT       FAIR      84  42  22 S14G23    30.06F
FLAGSTAFF      FAIR      73  44  35 SW17G25   30.20F
PAYSON         PTSUNNY   82  52  34 S9G16     30.09F
PAGE           FAIR      89  34  14 VRB3G18   29.95F
$$

AZZ009>014-017-032200-
NORTHEAST ARIZONA

CITY           SKY/WX    TMP DP  RH WIND       PRES   REMARKS
WINSLOW        NOT AVBL
SAINT JOHNS    LGT RAIN  68  62  81 SE5       30.12F
WINDOW ROCK    FAIR      81  40  23 W10       30.17F
SHOW LOW       FAIR      75  48  38 SW13G18   30.17F
$$

AZZ023-032200-
GREATER PHOENIX AREA

CITY           SKY/WX    TMP DP  RH WIND       PRES   REMARKS
PHOENIX        PTSUNNY   99  50  19 S10       29.79F
BUCKEYE        FAIR     100  45  15 S9        29.78F
GLENDALE       PTSUNNY   99  45  15 VRB5      29.81F
LUKE AFB       FAIR      99  47  16 VRB3      29.78F
DEER VALLEY    FAIR      96  44  16 SW7       29.81F
SCOTTSDALE     FAIR      96  41  15 SE7       29.84F
MESA-FALCON    PTSUNNY   97  50  20 SW12      29.82F
MESA-GATEWAY   PTSUNNY   91  61  35 S17       29.86R HAZE
$$

AZZ027-028-032200-
SOUTHWEST MARICOPA COUNTY AND PINAL COUNTY

CITY           SKY/WX    TMP DP  RH WIND       PRES   REMARKS
CASA GRANDE    PTSUNNY   77  66  69 S10       29.87R THUNDER
GILA BEND      MOSUNNY  103  46  14 W12G23    29.75F
$$

AZZ503-504-507>509-032200-
SOUTHEAST ARIZONA

CITY           SKY/WX    TMP DP  RH WIND       PRES   REMARKS
TUCSON         PTSUNNY   85  61  44 N9        29.93F
DAVIS-MONTHAN  FAIR      85  64  49 N10       29.91F
RYAN FIELD     SUNNY     77  73  88 SW7       29.93F
NOGALES        LGT RAIN  70  62  76 CALM      30.05R
SIERRA VISTA   PTSUNNY   77  58  51 SE15      30.09F
DOUGLAS        FAIR      74  59  59 S18       30.08F
SAFFORD        FAIR      85  58  39 VRB5      29.96F
$$

AZZ020-021-025-026-031-032200-
SOUTHWEST ARIZONA

CITY           SKY/WX    TMP DP  RH WIND       PRES   REMARKS
YUMA           FAIR     103  52  18 S9        29.70F HX 100
$$

CAZ031-033-041-043-047-048-061-032200-
SOUTHERN CALIFORNIA

CITY           SKY/WX    TMP DP  RH WIND       PRES   REMARKS
DOWNTOWN L.A.  FAIR      77  57  50 VRB5      29.86F
L.A. AIRPORT   FAIR      73  58  59 W12G18    29.88F
SAN DIEGO      FAIR      75  57  53 W10G16    29.90F
BURBANK        FAIR      79  54  41 SE8       29.87F
ONTARIO        FAIR      79  54  41 NW6       29.87F
RIVERSIDE      FAIR      80  56  43 W8        29.87F
PALM SPRINGS   FAIR      99  42  14 VRB7      29.74F
EL CENTRO NAS  FAIR     101  40  12 VRB6      29.71F
IMPERIAL       FAIR     102  40  12 VRB3      29.69F
BLYTHE         FAIR     100  59  25 S12G20    29.71F HX 100
NEEDLES        FAIR     103  32   8 SW15G22   29.73F
$$

NVZ020-UTZ003-032200-
SOUTHERN NEVADA-UTAH

CITY           SKY/WX    TMP DP  RH WIND       PRES   REMARKS
LAS VEGAS      FAIR      97  34  11 CALM      29.74F
SALT LAKE CITY FAIR      88  32  13 S29G39    29.84F
$$

NMZ009-TXZ055-032200-
NEW MEXICO-WEST TEXAS

CITY           SKY/WX    TMP DP  RH WIND       PRES   REMARKS
ALBUQUERQUE    MOSUNNY   85  46  25 VRB3      30.07F
EL PASO        PTSUNNY   90  49  24 W16       29.99F
$$


........................KEY........................
SKY/WX - SKY CONDITION/WEATHER
TMP    - TEMPERATURE IN FAHRENHEIT
DP     - DEW POINT IN FAHRENHEIT
RH     - RELATIVE HUMIDITY IN PERCENT
WIND   - DIRECTION AND SPEED IN MILES PER HOUR (MPH)
VRB    - VARIABLE WIND DIRECTION
PRES   - MEAN SEA LEVEL PRESSURE IN INCHES OF MERCURY
         F - FALLING PRESSURE   R - RISING PRESSURE
         S - STEADY PRESSURE
VSB    - VISIBILITY IN MILES
HX     - HEAT INDEX IN FAHRENHEIT
WCI    - WIND CHILL INDEX IN FAHRENHEIT
TC     - TEMPERATURE IN CELSIUS WHICH IS ALSO KNOWN AS
         TEMPERATURE IN CENTIGRADE
AFB    - AIR FORCE BASE
         LUKE AFB IS LUKE AIR FORCE BASE
         DAVIS-MONTHAN IS DAVIS-MONTHAN AIR FORCE BASE
NAS    - NAVAL AIR STATION
         EL CENTRO NAS IS EL CENTRO NAVAL AIR STATION
N/A    - NOT AVAILABLE




USA.gov is the U.S. government's official web portal to all federal, state and local government web resources and services.